Location: Feydey
(46.3431°N, 7.0106°E)
Time: 06:56:59
(UTC+00:00)

Cosmos 1825 Rocket - Pass Details

Date: 20 June 2021
Orbit: 603 x 632 km, 82.5° (Epoch: 28 July)

Event Time Altitude Azimuth Distance (km) Brightness Sun altitude
Exits shadow 23:25:14 37° 127° (SE) 991 4.3 -20.2°
Maximum altitude 23:26:14 43° 93° (E) 891 4.3 -20.2°
Drops below altitude 10° 23:30:28 10° 22° (NNE) 2,014 7.2 -20.2°
Sets 23:32:47 0° 16° (NNE) 2,922 8.4 -20.2°
